ENVAEVVA

Guest
Details From ENVA - Vaernes
To EVVA - VENTSPILS INTL
Flight Number -
Tags decoded
Created
Modified
Stats Distance 491 nm / 910 km
Max Altitude 0 ft / 0 m
Waypoints 6
Social Downloads 3
Likes 0
Share

Download

Looking for another format? Having issues loading an existing format? Contact us
Advertisement - Login to hide

Notes

Requested: ENVA SOLKA N133 MAVIP Y96 DEGAL NEKET M870 MILTA EVVA Unmatched points: N133 MAVIP M870

Route

ENVA SOLKA DEGAL NEKET MILTA EVVA

ID Type Via Altitude (ft/m) Position (lat/lon) Dist (leg/tot) Name
O ENVA APT - 0 / 0 63.45760 / 10.91798 - / 0 nm Vaernes
SOLKA FIX - 0 / 0 63.33083 / 12.05250 31 / 31 nm
DEGAL FIX - 0 / 0 60.63883 / 17.95667 231 / 263 nm
NEKET FIX - 0 / 0 58.30444 / 20.57861 161 / 424 nm
MILTA FIX - 0 / 0 57.68806 / 21.45528 46 / 471 nm
O EVVA APT - 0 / 0 57.35780 / 21.54417 20 / 491 nm VENTSPILS INTL

Altitude Profile

Advertisement - Login to hide

Weather


0- 5 10 15 20 25 30 35+ Temperature / °C

Clouds and Precipitation
Forecast for 2021-03-22 12:00 UTC. Updated 2 months ago

Ground ~20,000 ft ~40,000 ft Winds

ENVA

Details ICAO ENVA (TRD)
Name Trondheim Vaernes
Region Norway
Timezone Europe/Oslo (UTC+2.0)
Stats Elevation 56 ft / 17 m (AMSL)
Location 63.457500° 10.924200°
Runways 1
Magnetic Variation 4.150° E

METAR

ENVA 131420Z 24005KT 9999 SCT006 OVC013 09/07 Q1013 TEMPO OVC008 RMK WIND 670FT 30004KT

Decode

TAF

TAF AMD ENVA 131239Z 1312/1412 26005KT 9999 SCT005 BKN012 TEMPO 1312/1406 3000 DZ BR OVC005 BECMG 1404/1407 FEW010 SCT050

Decode

Departure Runways

ID Width Length Bearing (true/mag) Surface Threshold Overrun Markings Lighting
09 148 ft / 45 m 9,744 ft / 2,970 m 90.18° / 86.03° ASPHALT 830 ft / 253 m 0 ft / 0 m PREC-APP CENTERLINE EDGE THRESHOLD CALVERT REIL-OMNI
27 148 ft / 45 m 9,744 ft / 2,970 m 270.24° / 266.09° ASPHALT 745 ft / 227 m 0 ft / 0 m PREC-APP CENTERLINE EDGE THRESHOLD CALVERT REIL-OMNI

EVVA

Details ICAO EVVA (VNT)
Name Ventspils International
Region Latvia
Timezone Europe/Riga (UTC+3.0)
Stats Elevation 19 ft / 6 m (AMSL)
Location 57.357800° 21.544200°
Runways 1
Magnetic Variation 7.461° E

METAR

EVVA 131420Z AUTO 09012KT CAVOK 22/08 Q1004

Decode

TAF

Not found

Destination Runways

ID Width Length Bearing (true/mag) Surface Threshold Overrun Markings Lighting
03 100 ft / 31 m 4,246 ft / 1,294 m 35.44° / 27.98° ASPHALT 0 ft / 0 m 0 ft / 0 m PREC-APP EDGE THRESHOLD REIL-OMNI
21 100 ft / 31 m 4,246 ft / 1,294 m 215.45° / 207.99° ASPHALT 0 ft / 0 m 0 ft / 0 m PREC-APP EDGE THRESHOLD SALS REIL-OMNI

Popular Alternatives